User: anonymous   Login
Location: Unspecified
(0.0000°N, 0.0000°E)
Time: 17:44:28
(UTC+00:00)
Language:

SPOT 7 - Orbit

View from above orbital plane
View from above orbital plane
View from above satellite
View from above satellite

Ground track
Ground track

The orbit data is extracted from the following two-line orbital elements,

1 40053U 14034A   18198.19618588 -.00000018  00000-0  59162-5 0  9995
2 40053  98.1863 265.3284 0001589  83.7908 276.3483 14.58560693215454
Epoch (UTC): 17 July 2018 04:42:30
Eccentricity: 0.0001589
inclination: 98.1863°
perigee height: 697 km
apogee height: 699 km
right ascension of ascending node: 265.3284°
argument of perigee: 83.7908°
revolutions per day: 14.58560693
mean anomaly at epoch: 276.3483°
orbit number at epoch: 21545

The dashed part of the orbit path shows where the satellite is in the earth's shadow,  

DLR